{"data":{"norad_id":65345,"intl_designator":"2025-189Y","name":"STARLINK-34831","alt_names":[],"object_type":"PAYLOAD","status":"ACTIVE","operator":null,"country":"US","launch_date":"2025-08-27","launch_site_code":"AFETR","launch_vehicle":null,"mission":null,"orbit_class":"UNKNOWN","rcs_meters":null,"size_class":null,"mass_kg":null,"dimensions":null,"purposes":["comms"],"wikipedia_slug":null,"has_3d_model":false,"image_url":null,"decayed_at":null,"tle_current":{"epoch":"2026-05-25T05:00:35.987040Z","epoch_age_seconds":50841,"freshness":"FRESH","line1":"1 65345U 25189Y   26145.20874985  .00012027  00000+0  39849-3 0  9996","line2":"2 65345  53.1575 211.2139 0000903  72.7704 287.3396 15.31716778 42830","mean_motion":15.31716778,"eccentricity":9.03e-5,"inclination_deg":53.1575,"raan_deg":211.2139,"arg_perigee_deg":72.7704,"mean_anomaly_deg":287.3396,"bstar":0.00039849,"rev_number":4283,"period_min":94.01215816675,"perigee_km":470.07153226083,"apogee_km":471.30843041366,"semimajor_km":6848.8269813372,"source":"CELESTRAK","updated_at":"2026-05-25T13:38:20.763021Z"}}}